Change the Weather History Date:

Tuesday, September 4, 2012

  Actual Average Record
Temperature  
Mean Temperature 71 °F 60 °F  
Max Temperature 84 °F 70 °F 89 °F (1948)
Min Temperature 57 °F 51 °F 36 °F (1918)
Degree Days  
Heating Degree Days 0 6  
Month to date heating degree days 0 22  
Since 1 July heating degree days 47 171  
Cooling Degree Days 6 1  
Month to date cooling degree days 17 4  
Year to date cooling degree days 402 194  
Growing Degree Days 20 (Base 50)    
Moisture  
Dew Point 56 °F    
Average Humidity 64    
Maximum Humidity 86    
Minimum Humidity 42    
Precipitation  
Precipitation 0.00 in 0.14 in 1.60 in (1911)
Month to date precipitation T 0.54  
Year to date precipitation 28.25 21.24  
Snow  
Snow 0.00 in 0.00 in 0.00 in (2002)
Month to date snowfall 0.0 0.0  
Since 1 July snowfall 0.0 0.0  
Since 1 September snowfall 0.0 0.0  
Snow Depth 0.00 in    
Sea Level Pressure  
Sea Level Pressure 29.82 in    
Wind  
Wind Speed 5 mph (SE)    
Max Wind Speed 15 mph    
Max Gust Speed 18 mph    
Visibility 10 miles    
Events      
T = Trace of Precipitation, MM = Missing Value Source: NWS Daily Summary

Daily Weather History Graph

Daily Weather History Graph

Search for Another Location

Airport or City:

Trip Planner

Search our weather history database for the weather conditions in past years. The results will help you decide how hot, cold, wet, or windy it might be!

Date:

Astronomy

Sep. 04, 2012 Rise Set
Actual Time 6:32 AM CDT 7:41 PM CDT
Civil Twilight 6:01 AM CDT 8:12 PM CDT
Nautical Twilight 5:24 AM CDT 8:49 PM CDT
Astronomical Twilight 4:44 AM CDT 9:29 PM CDT
Moon 9:13 PM CDT (9/4) 11:00 AM CDT (9/4)
Length of Visible Light 14h 10m
Length of Day
13h 08m
Waning Gibbous, 83% of the Moon is Illuminated
Sep 4
Waning Gibbous
Sep 8
Last Quarter
Sep 15
New
Sep 22
First Quarter
Sep 29
Full

Hourly Weather History & Observations

Time (CDT) Temp. Heat Index Dew Point Humidity Pressure Visibility Wind Dir Wind Speed Gust Speed Precip Events Conditions
12:55 AM 59.0 °F - 52.0 °F 78% 29.88 in 10.0 mi East 3.5 mph - N/A   Clear
1:55 AM 62.1 °F - 51.1 °F 67% 29.88 in 10.0 mi Calm Calm - N/A   Clear
2:55 AM 60.1 °F - 52.0 °F 75% 29.88 in 10.0 mi Calm Calm - N/A   Clear
3:55 AM 60.1 °F - 52.0 °F 75% 29.88 in 10.0 mi Calm Calm - N/A   Clear
4:55 AM 57.9 °F - 53.1 °F 84% 29.88 in 10.0 mi Calm Calm - N/A   Clear
5:55 AM 61.0 °F - 55.0 °F 81% 29.88 in 10.0 mi NNE 3.5 mph - N/A   Clear
6:55 AM 61.0 °F - 52.0 °F 72% 29.88 in 10.0 mi NE 4.6 mph - N/A   Scattered Clouds
7:55 AM 63.0 °F - 55.0 °F 75% 29.88 in 10.0 mi ENE 3.5 mph - N/A   Scattered Clouds
8:55 AM 70.0 °F - 53.1 °F 55% 29.87 in 10.0 mi East 6.9 mph - N/A   Clear
9:55 AM 73.9 °F - 53.1 °F 48% 29.86 in 10.0 mi ESE 6.9 mph - N/A   Clear
10:55 AM 78.1 °F - 55.0 °F 45% 29.84 in 10.0 mi SE 9.2 mph - N/A   Clear
11:55 AM 79.0 °F - 57.0 °F 47% 29.82 in 10.0 mi SE 9.2 mph - N/A   Clear
12:55 PM 81.0 °F 81.1 °F 57.9 °F 45% 29.80 in 10.0 mi SE 6.9 mph - N/A   Scattered Clouds
1:55 PM 82.9 °F 83.7 °F 62.1 °F 49% 29.77 in 10.0 mi SSW 6.9 mph - N/A   Scattered Clouds
2:55 PM 84.0 °F 84.9 °F 63.0 °F 49% 29.75 in 10.0 mi SSE 8.1 mph - N/A   Scattered Clouds
3:55 PM 82.0 °F 82.0 °F 57.9 °F 44% 29.74 in 10.0 mi SSE 11.5 mph - N/A   Scattered Clouds
4:55 PM 80.1 °F 80.2 °F 55.9 °F 43% 29.74 in 10.0 mi SSE 8.1 mph - N/A   Scattered Clouds
5:55 PM 79.0 °F - 57.0 °F 47% 29.74 in 10.0 mi South 4.6 mph - N/A   Scattered Clouds
6:55 PM 78.1 °F - 60.1 °F 54% 29.75 in 10.0 mi West 9.2 mph - N/A   Partly Cloudy
7:55 PM 73.0 °F - 60.1 °F 64% 29.78 in 10.0 mi West 5.8 mph - N/A   Partly Cloudy
8:55 PM 66.9 °F - 59.0 °F 76% 29.78 in 10.0 mi SSE 3.5 mph - N/A   Clear
9:55 PM 66.0 °F - 59.0 °F 78% 29.76 in 10.0 mi Calm Calm - N/A   Clear
10:55 PM 63.0 °F - 57.0 °F 81% 29.77 in 10.0 mi Calm Calm - N/A   Clear
11:55 PM 63.0 °F - 55.9 °F 78% 29.77 in 10.0 mi Calm Calm - N/A   Clear